Location: C.E.K. Mees Observatory
(42.7003°N, 77.4088°W)
Time: 02:29:30
(UTC-05:00)

Envisat - Pass Details

Date: 19 November 2019
Orbit: 764 x 766 km, 98.1° (Epoch: 13 December)

Event Time Altitude Azimuth Distance (km) Brightness Sun altitude
Rises 18:55:07 0° 192° (SSW) 3,217 6.4 -24.0°
Reaches altitude 10° 18:57:39 10° 202° (SSW) 2,295 5.8 -24.4°
Maximum altitude 19:02:08 31° 264° (W) 1,310 4.8 -25.3°
Drops below altitude 10° 19:06:38 10° 327° (NNW) 2,310 5.8 -26.1°
Sets 19:09:12 0° 337° (NNW) 3,240 6.5 -26.6°
